{"data":{"norad_id":67679,"intl_designator":"2026-023F","name":"COSMOS 2605","alt_names":[],"object_type":"PAYLOAD","status":"ACTIVE","operator":null,"country":"CIS","launch_date":"2026-02-05","launch_site_code":"PLMSC","launch_vehicle":null,"mission":null,"orbit_class":"UNKNOWN","rcs_meters":null,"size_class":null,"mass_kg":null,"dimensions":null,"purposes":[],"wikipedia_slug":null,"has_3d_model":false,"image_url":null,"decayed_at":null,"tle_current":{"epoch":"2026-09-20T10:18:01.156320Z","epoch_age_seconds":95334,"freshness":"FRESH","line1":"1 67679U 26023F   26263.42918005  .00007201  00000+0  27275-3 0  9991","line2":"2 67679  96.6130 316.5712 0021188 143.7713 216.4967 15.26947073 34526","mean_motion":15.26947073,"eccentricity":0.0021188,"inclination_deg":96.613,"raan_deg":316.5712,"arg_perigee_deg":143.7713,"mean_anomaly_deg":216.4967,"bstar":0.00027275,"rev_number":3452,"period_min":94.305822740197,"perigee_km":470.40346372637,"apogee_km":499.48645984764,"semimajor_km":6863.081961787,"source":"CELESTRAK","updated_at":"2026-09-21T09:00:16.777515Z"}}}